Home   Weather   Incheon   Past weeks

Flag for South Korea Past Weather in Incheon, South Korea — Yesterday and Last 2 Weeks

64 °F


Feels Like: 64 °F
Forecast: 61 / 68 °F
Wind: 6 mph from Southeast

Location: Incheon International Airport

Current Time: Oct 21, 2016 at 4:44:58 AM

Latest Report: Oct 21, 2016 at 4:00 AM

Visibility: 10 mi

Pressure: 30.12 "Hg

Humidity: 56%

Dew Point: 48 °F

Location of IncheonLocation

Past Weather in Incheon — Graph


Incheon Temperature Yesterday

Maximum temperature yesterday: 73 °F (at 3:00 PM)
Minimum temperature yesterday: 55 °F (at 3:30 AM)
Average temperature yesterday: 64 °F

High & Low Weather Summary for the Past Weeks

High75 °F (Oct 7, 1:00 PM)88% (Oct 8, 12:00 AM)30.33 "Hg (Oct 8, 12:00 AM)
Low48 °F (Oct 9, 5:00 AM)18% (Oct 13, 1:00 PM)29.86 "Hg (Oct 8, 1:00 PM)
Average62 °F58%30.13 "Hg
* Reported Oct 6 3:00 AM — Oct 21 3:00 AM, Incheon, Weather by CustomWeather, © 2016

Note: Actual official high and low records may vary slightly from our data, if they occured in-between our weather recording intervals... More about our weather records


Incheon Weather History for the Previous 24 Hours

Scroll right to see more
Time TempWeatherWind HumidityBarometerVisibility
3:00 AM
Fri, Oct 21
64 °FClear.7 mph56%30.12 "Hg10 mi
2:30 AM64 °FClear.7 mph60%30.12 "Hg10 mi
2:00 AM64 °FClear.7 mph60%30.12 "Hg10 mi
1:30 AM64 °FClear.7 mph60%30.12 "Hg10 mi
1:00 AM64 °FClear.7 mph60%30.12 "Hg10 mi
12:30 AM64 °FClear.6 mph60%30.12 "Hg10 mi
12:00 AM66 °FClear.6 mph56%30.12 "Hg10 mi
11:00 PM
Thu, Oct 20
68 °FClear.6 mph56%30.09 "Hg5 mi
10:30 PM68 °FClear.7 mph56%30.09 "Hg4 mi
10:00 PM68 °FClear.8 mph56%30.09 "Hg5 mi
9:30 PM70 °FClear.8 mph53%30.09 "Hg4 mi
9:00 PM70 °FHaze.7 mph53%30.07 "Hg3 mi
8:30 PM68 °FFog.7 mph60%30.09 "Hg3 mi
8:00 PM66 °FFog.2 mph68%30.07 "Hg2 mi
7:30 PM66 °FFog.1 mph73%30.07 "Hg2 mi
7:00 PM66 °FHaze.2 mph73%30.07 "Hg3 mi
6:30 PM66 °FHaze.6 mph73%30.07 "Hg3 mi
6:00 PM68 °FHaze.5 mph64%30.07 "Hg3 mi
5:30 PM68 °FHaze.5 mph64%30.07 "Hg3 mi
5:00 PM70 °FHaze.6 mph57%30.07 "Hg3 mi
4:30 PM72 °FHaze.7 mph53%30.04 "Hg3 mi
4:00 PM73 °FHaze.6 mph44%30.04 "Hg3 mi
3:30 PM73 °FHaze.7 mph44%30.04 "Hg3 mi
3:00 PM73 °FHaze.8 mph44%30.04 "Hg3 mi
2:30 PM72 °FHaze.8 mph47%30.04 "Hg3 mi
2:00 PM72 °FHaze.9 mph44%30.07 "Hg3 mi
1:30 PM72 °FHaze.10 mph44%30.07 "Hg3 mi
1:00 PM70 °FHaze.10 mph46%30.07 "Hg3 mi
12:30 PM70 °FHaze.8 mph50%30.07 "Hg3 mi
12:00 PM68 °FHaze.10 mph56%30.09 "Hg3 mi
11:30 AM68 °FHaze.9 mph56%30.09 "Hg3 mi
11:00 AM66 °FHaze.9 mph60%30.12 "Hg3 mi
10:30 AM64 °FHaze.8 mph60%30.12 "Hg3 mi
10:00 AM64 °FHaze.5 mph64%30.12 "Hg3 mi
9:30 AM63 °FFog.6 mph68%30.12 "Hg3 mi
9:00 AM63 °FFog.2 mph68%30.12 "Hg3 mi
8:30 AM61 °FFog.5 mph72%30.12 "Hg3 mi
8:00 AM59 °FClear.5 mph77%30.12 "Hg4 mi
7:30 AM57 °FClear.5 mph82%30.12 "Hg4 mi
7:00 AM57 °FClear.3 mph82%30.09 "Hg4 mi
6:30 AM57 °FFog.2 mph82%30.09 "Hg2 mi
6:00 AM57 °FFog.3 mph82%30.09 "Hg2 mi
5:30 AM57 °FFog.5 mph82%30.09 "Hg2 mi
5:00 AM57 °FFog.5 mph82%30.09 "Hg2 mi
4:30 AM57 °FFog.2 mph82%30.09 "Hg3 mi
4:00 AM57 °FFog.2 mph82%30.09 "Hg3 mi
Weather by CustomWeather, © 2016

See weather overviewHow to use our weather pages